OBJECT AK, 69013

Orbit data source: Space-Track

You're viewing an Uncataloged Satellite

Recently launched and/or uncataloged satellites may have evolving metadata. Metadata may include but not limited to: Owner, Maufacturer, Bus, Motor, and Mission.

OBJECT AK, 69013 is a satellite in SSO that was launched on Sun, 03 May 2026 UTC launched from the Air Force Western Test Range (AFWTR). Unknown objects in Earth's orbit typically refer to objects detected orbiting the Earth but have not yet been identified or cataloged. These objects could be anything from previously untracked satellites, spent rocket stages, debris from satellite collisions, or even natural meteoroids temporarily captured by Earth's gravity.

Loading next visibility...
Identifier
69013, 2026-100AK
Orbit
SSO
Country
Flag of TBDTBD
Related business
None
Manufacturer
Unknown
Mission
Operational spacecraft
Bus & Motor
Unknown
Mass
Unknown
Launch date (UTC)
2026-05-03 (1 week ago)
Launch vehicle
Unknown
Launch site
Air Force Western Test Range (AFWTR)
Object type
Unknown
Shape & HBR
Unknown
Radar Cross Section
RCS unknown

Expand to show TLE details & history
Last TLE update: 7 hours ago

TLE from 7 hours ago
0 OBJECT AK
1 69013U 26100AK  26130.17808966  .00004052  00000-0  18960-3 0  9993
2 69013  97.4106  28.6889 0008408 141.9868 218.1962 15.20279296  1032
Epoch: 2026-05-10T04:16Z
TLE epoch observation values (Epoch: 2026-05-10T04:16:26.946Z)
Latitude
-0.00004°
Longitude
96.59173°
Altitude
512.639 km
Speed
7.605 km/s
True Right ascension
01h 54m 45s
True Declination
0° 00' 00"
Sunlit
Object was in daylight at epoch
Visualization orbit readout
Latitude
Unknown
Longitude
Unknown
Altitude
Unknown
Speed
Unknown
Apparent Right ascension
Unknown
Apparent Declination
Unknown
Sunlit
N/A
Visualization observer readout
Local Sidereal Time
19:44:58
Azimuth
Unknown
Elevation
Unknown
Doppler factor
Unknown
Orbital elements
Apogee altitude
507.748 km
Perigee altitude
496.178 km
Semi-major axis
6,880.1 km
Eccentricity
0.00084
Inclination
97.4106°
RAAN
28.6889°
Arg. of periapsis
141.9868°
True anomaly
218.13667°
Mean anomaly
218.1962°
Eccentric anomaly
218.16643°
Mean motion
3.80322 °/min
Orbital period
94.66 mins
BSTAR
0.0001896
Loading maneuver chart data...
Computing Atmospheric mass density...
Loading historical data...
Loading historical data...
Loading historical data...
Loading historical data...
Loading historical data...
Loading historical data...
Loading historical data...

Documentation

Showing up to 5 results
|